GOES 16 [+]

Last updated on March 8, 2021, 6:42 a.m. UTC

1 41866U 16071A   21066.83486639 -.00000268  00000-0  00000-0 0  9999
2 41866   0.0563 300.9222 0001524  79.5507  10.6114  1.00271721 15789
UTC
Height (km)
Latitude
Longitude
Inclination
Orbital Period
UTC large
Height (km)
Speed (km/s)
/
Latitude / Longitude
Inclination (degrees)
Orbital Period (minutes)
Azimuth
Elevation
Range (km)
Doppler Factor
iOS Compass Heading
iOS Angle

Next 30 passes for location: Hong Kong

Rise time Rise Azimuth (degrees) Set time Set Azimuth (degrees) Duration Max altitude (degrees)

No matching passes for this satellites